Location: Brno
(49.2000°N, 16.6330°E)
Time: 19:05:15
(UTC+02:00)

Transit 4A - Pass Details

Date: 31 July 2021
Orbit: 871 x 974 km, 66.8° (Epoch: 16 September)

Event Time Altitude Azimuth Distance (km) Brightness Sun altitude
Rises 00:22:15 0° 184° (S) 3,492 - -22.0°
Reaches altitude 10° 00:24:56 10° 176° (S) 2,543 - -22.1°
Exits shadow 00:29:37 34° 124° (SE) 1,412 8.5 -22.2°
Maximum altitude 00:30:10 35° 113° (ESE) 1,393 8.5 -22.2°
Drops below altitude 10° 00:35:22 10° 50° (NE) 2,528 10.6 -22.3°
Sets 00:38:02 0° 41° (NE) 3,468 11.5 -22.4°
